KINEIS-4C

导读

KINEIS-4E是法国Kineis公司开发的低轨物联网卫星,于2025年3月18日发射升空,目前运行状态为在轨。作为Kineis全球物联网卫星星座计划的组成部分,它采用轻量化设计,运行在近地轨道,可为偏远地区低功耗设备提供双向通信服务,支持农业、物流、环境监测等多领域广域数据传输,助力构建覆盖全球的高效可靠物联网通信网络。

基本信息
目录编号:
63300
目录名称:
KINEIS-4E
国际标识:
2025-056A
轨道中心:
EARTH
卫星名称:
KINEIS-4E
卫星全名:
KINEIS-4C
卫星状态:
在轨 (已飞行545 天)
发射日期:
2025-03-18 UTC
国别 :
法国 (FR)
星等 :
--
该卫星已列入 空间交会检测服务 Space Conjunction Data Service (SCDS) ,当前飞行风险评估等级: 无高风险
轨道信息
数据来源 国际轨道数据
星历时间: 2026-09-14T13:02:57+0800
4小时前
查看轨道信息
半长轴: 7031.851km
偏心率: 0.0001063
轨道倾角: 97.914°
近地点辐角 179.278°
升交点赤经 18.686°
平近点角 180.843°
近地点: 652.966km
远地点: 654.462km
周期: 97.806分钟
每日圈数: 14.723069
详细信息
使用方式:
暂无
2D轨道图
3D轨道图
轨道高度分析图
轨道倾角分析图
轨道综合分析图
查看轨道综合分析图
交会数据列表
事件ID 空间交会对象 最接近时刻(TCA) 交会距离 交会风险概率(CRP) 交会风险指数(CRI) 操作
CDM_260915-043203-489606-330025
2026-09-15T
04:32:53+0000
2.373 km
极远距离
1.958234E-6 低风险 0.41
CDM_260911-225903-574406-330026
2026-09-11T
22:59:44+0000
2.860 km
极远距离
1.43448E-6 低风险 0.38
CDM_260912-193001-047106-330028
2026-09-12T
19:30:38+0000
2.731 km
极远距离
1.41651E-6 低风险 0.38
与全量物体交会距离演化趋势 订阅飞行安全评估服务
与全量物体交会风险概率演化趋势 订阅飞行安全评估服务